When you browse on this site, cookies collect data to enhance your experience and personalize the content and advertising you see.
Visit our Privacy Policy to learn more. By continuing to use the site, you agree to this use of cookies and data.
  • In Hungary
  • List of Countries
  • For 7 days
  • Water Temperature
  • Satellite Maps
  • Weather Map
  • News
  • Weather Widgets
  • user-avatar
    Login

    Hourly Weather Formosa

    Today, 24 July, Wednesday

    Time Temperature Precipitation Wind Pressure Humidity
    00:00 +11°C° 0.8 mm 3 mps 759 mmHg 96%
    01:00 +11°C° 0.8 mm 3 mps 759 mmHg 96%
    02:00 +11°C° 0.8 mm 3 mps 759 mmHg 96%
    03:00 +12°C° 0.1 mm 2 mps 759 mmHg 96%
    04:00 +12°C° 0.1 mm 2 mps 759 mmHg 96%
    05:00 +12°C° 0.1 mm 2 mps 759 mmHg 96%
    06:00 +13°C° 0.9 mm 2 mps 759 mmHg 96%
    07:00 +13°C° 0.9 mm 2 mps 760 mmHg 96%
    08:00 +13°C° 0.9 mm 2 mps 761 mmHg 97%
    09:00 +13°C° 0.6 mm 2 mps 761 mmHg 96%
    10:00 +13°C° 0.6 mm 2 mps 761 mmHg 96%
    11:00 +14°C° 0.6 mm 2 mps 761 mmHg 96%
    12:00 +14°C° 1.1 mm 2 mps 761 mmHg 96%
    13:00 +13°C° 1.1 mm 2 mps 761 mmHg 96%
    14:00 +13°C° 1.1 mm 2 mps 760 mmHg 96%
    15:00 +12°C° 0.3 mm 3 mps 760 mmHg 96%
    16:00 +12°C° 0.3 mm 3 mps 760 mmHg 96%
    17:00 +12°C° 0.3 mm 3 mps 760 mmHg 96%
    18:00 +12°C° 0.1 mm 3 mps 760 mmHg 95%
    19:00 +12°C° 0.1 mm 3 mps 761 mmHg 95%
    20:00 +12°C° 0.1 mm 3 mps 761 mmHg 95%
    21:00 +12°C° 0.2 mm 3 mps 761 mmHg 95%
    22:00 +11°C° 0.2 mm 3 mps 761 mmHg 96%
    23:00 +12°C° 0.2 mm 2 mps 761 mmHg 96%

    Tomorrow, 25 July, Thursday

    Time Temperature Precipitation Wind Pressure Humidity
    00:00 +12°C° 0 mm 2 mps 761 mmHg 96%
    01:00 +12°C° 0 mm 2 mps 760 mmHg 96%
    02:00 +10°C° 0 mm 2 mps 760 mmHg 96%
    03:00 +10°C° 0.7 mm 2 mps 759 mmHg 96%
    04:00 +10°C° 0.7 mm 2 mps 759 mmHg 96%
    05:00 +10°C° 0.7 mm 2 mps 759 mmHg 96%
    06:00 +10°C° 3 mm 2 mps 759 mmHg 97%
    07:00 +10°C° 3 mm 2 mps 760 mmHg 97%
    08:00 +10°C° 3 mm 2 mps 760 mmHg 98%
    09:00 +10°C° 2.3 mm 2 mps 760 mmHg 97%
    10:00 +10°C° 2.3 mm 2 mps 760 mmHg 97%
    11:00 +10°C° 2.3 mm 3 mps 760 mmHg 97%
    12:00 +10°C° 4.7 mm 2 mps 759 mmHg 97%
    13:00 +10°C° 4.7 mm 2 mps 759 mmHg 97%
    14:00 +10°C° 4.7 mm 2 mps 759 mmHg 97%
    15:00 +10°C° 3.9 mm 2 mps 759 mmHg 97%
    16:00 +10°C° 3.9 mm 2 mps 759 mmHg 97%
    17:00 +11°C° 3.9 mm 1 mps 759 mmHg 98%
    18:00 +10°C° 1 mm 2 mps 759 mmHg 97%
    19:00 +10°C° 1 mm 2 mps 759 mmHg 97%
    20:00 +10°C° 1 mm 2 mps 759 mmHg 96%
    21:00 +10°C° 0 mm 2 mps 760 mmHg 96%
    22:00 +9°C° 0 mm 2 mps 760 mmHg 96%
    23:00 +10°C° 0 mm 1 mps 760 mmHg 96%

    Day after tomorrow, 26 July, Friday

    Time Temperature Precipitation Wind Pressure Humidity
    00:00 +10°C° 0 mm 1 mps 760 mmHg 96%
    01:00 +9°C° 0 mm 1 mps 760 mmHg 97%
    02:00 +9°C° 0 mm 1 mps 760 mmHg 97%
    03:00 +9°C° 0 mm 1 mps 760 mmHg 97%
    04:00 +8°C° 0 mm 1 mps 760 mmHg 97%
    05:00 +8°C° 0 mm 1 mps 760 mmHg 96%
    06:00 +8°C° 0 mm 1 mps 761 mmHg 95%
    07:00 +9°C° 0 mm 1 mps 761 mmHg 94%
    08:00 +9°C° 0 mm 1 mps 762 mmHg 93%
    09:00 +11°C° 0 mm 1 mps 762 mmHg 88%
    10:00 +13°C° 0 mm 2 mps 762 mmHg 82%
    11:00 +14°C° 0 mm 2 mps 763 mmHg 76%
    12:00 +15°C° 0 mm 2 mps 762 mmHg 74%
    13:00 +15°C° 0 mm 2 mps 762 mmHg 73%
    14:00 +16°C° 0 mm 2 mps 761 mmHg 71%
    15:00 +15°C° 0 mm 1 mps 761 mmHg 74%
    16:00 +15°C° 0 mm 1 mps 761 mmHg 76%
    17:00 +14°C° 0 mm 0 mps 761 mmHg 79%
    18:00 +14°C° 0 mm 1 mps 762 mmHg 80%
    19:00 +14°C° 0 mm 1 mps 762 mmHg 81%
    20:00 +13°C° 0 mm 1 mps 763 mmHg 82%
    21:00 +12°C° 0 mm 2 mps 763 mmHg 85%
    22:00 +10°C° 0 mm 2 mps 763 mmHg 89%
    23:00 +9°C° 0 mm 2 mps 763 mmHg 93%

    27 July, Saturday

    Time Temperature Precipitation Wind Pressure Humidity
    00:00 +8°C° 0 mm 2 mps 763 mmHg 93%
    01:00 +8°C° 0 mm 2 mps 763 mmHg 94%
    02:00 +9°C° 0 mm 1 mps 763 mmHg 94%
    03:00 +9°C° 0 mm 1 mps 763 mmHg 94%
    04:00 +9°C° 0 mm 1 mps 763 mmHg 95%
    05:00 +9°C° 0 mm 1 mps 762 mmHg 95%
    06:00 +8°C° 0 mm 2 mps 763 mmHg 92%
    07:00 +9°C° 0 mm 2 mps 763 mmHg 89%
    08:00 +10°C° 0 mm 2 mps 763 mmHg 85%
    09:00 +13°C° 0 mm 2 mps 763 mmHg 80%
    10:00 +15°C° 0 mm 2 mps 763 mmHg 74%
    11:00 +17°C° 0 mm 3 mps 763 mmHg 69%
    12:00 +17°C° 0 mm 2 mps 762 mmHg 67%
    13:00 +18°C° 0 mm 2 mps 762 mmHg 65%
    14:00 +19°C° 0 mm 2 mps 761 mmHg 63%
    15:00 +18°C° 0 mm 2 mps 761 mmHg 69%
    16:00 +17°C° 0 mm 2 mps 760 mmHg 74%
    17:00 +16°C° 0 mm 2 mps 760 mmHg 80%
    18:00 +15°C° 0 mm 2 mps 760 mmHg 84%
    19:00 +13°C° 0 mm 2 mps 760 mmHg 89%
    20:00 +12°C° 0 mm 2 mps 760 mmHg 93%
    21:00 +12°C° 0 mm 2 mps 760 mmHg 94%
    22:00 +12°C° 0 mm 2 mps 760 mmHg 95%
    23:00 +12°C° 0 mm 2 mps 760 mmHg 96%

    28 July, Sunday

    Time Temperature Precipitation Wind Pressure Humidity
    00:00 +12°C° 0 mm 2 mps 760 mmHg 94%
    01:00 +12°C° 0 mm 2 mps 760 mmHg 92%
    02:00 +13°C° 0 mm 2 mps 759 mmHg 90%
    03:00 +13°C° 0 mm 2 mps 759 mmHg 91%
    04:00 +13°C° 0 mm 1 mps 759 mmHg 91%
    05:00 +13°C° 0 mm 1 mps 758 mmHg 91%
    06:00 +13°C° 0 mm 1 mps 759 mmHg 90%
    07:00 +13°C° 0 mm 1 mps 759 mmHg 89%
    08:00 +14°C° 0 mm 1 mps 759 mmHg 88%
    09:00 +15°C° 0 mm 1 mps 759 mmHg 84%
    10:00 +16°C° 0 mm 1 mps 759 mmHg 81%
    11:00 +18°C° 0 mm 1 mps 759 mmHg 78%
    12:00 +19°C° 0 mm 1 mps 758 mmHg 76%
    13:00 +20°C° 0 mm 1 mps 758 mmHg 75%
    14:00 +21°C° 0 mm 1 mps 757 mmHg 73%
    15:00 +20°C° 0 mm 1 mps 757 mmHg 77%
    16:00 +20°C° 0 mm 1 mps 756 mmHg 81%
    17:00 +19°C° 0 mm 1 mps 756 mmHg 85%
    18:00 +19°C° 0 mm 1 mps 756 mmHg 88%
    19:00 +17°C° 0 mm 2 mps 756 mmHg 91%
    20:00 +16°C° 0 mm 2 mps 756 mmHg 95%
    21:00 +16°C° 0 mm 2 mps 756 mmHg 95%
    22:00 +16°C° 0 mm 2 mps 756 mmHg 95%
    23:00 +18°C° 0 mm 1 mps 756 mmHg 95%

    29 July, Monday

    Time Temperature Precipitation Wind Pressure Humidity
    00:00 +18°C° 0 mm 1 mps 756 mmHg 95%
    01:00 +18°C° 0 mm 1 mps 756 mmHg 94%
    02:00 +16°C° 0 mm 0 mps 755 mmHg 94%
    03:00 +16°C° 0 mm 0 mps 755 mmHg 93%
    04:00 +16°C° 0 mm 0 mps 755 mmHg 91%
    05:00 +17°C° 0 mm 0 mps 755 mmHg 89%
    06:00 +19°C° 0 mm 1 mps 756 mmHg 89%
    07:00 +19°C° 0 mm 1 mps 756 mmHg 88%
    08:00 +18°C° 0 mm 2 mps 757 mmHg 88%
    09:00 +20°C° 0 mm 2 mps 757 mmHg 80%
    10:00 +23°C° 0 mm 2 mps 757 mmHg 73%
    11:00 +25°C° 0 mm 2 mps 757 mmHg 65%
    12:00 +25°C° 0 mm 1 mps 757 mmHg 66%
    13:00 +25°C° 0 mm 1 mps 756 mmHg 68%
    14:00 +25°C° 0 mm 1 mps 756 mmHg 69%
    15:00 +24°C° 0 mm 1 mps 756 mmHg 72%
    16:00 +24°C° 0 mm 1 mps 756 mmHg 74%
    17:00 +23°C° 0 mm 1 mps 756 mmHg 77%
    18:00 +22°C° 0 mm 1 mps 756 mmHg 79%
    19:00 +21°C° 0 mm 1 mps 756 mmHg 82%
    20:00 +20°C° 0 mm 1 mps 756 mmHg 84%
    21:00 +19°C° 0 mm 2 mps 756 mmHg 84%
    22:00 +19°C° 0 mm 2 mps 756 mmHg 83%
    23:00 +19°C° 0 mm 2 mps 756 mmHg 83%
    Show more